EW3230 Weather Reports


time (UTC)temp
F
wind
direction
speed
knots
gust
knots
rain 1hr
in
rain 24hr
in
rain mn
in
humidity
%
barometer
mb
20260503214013 55 226 0.9 7.0 0.00 0.27 0.05 44 1007.0
20260503213014 54 197 1.7 9.6 0.00 0.27 0.05 43 1006.8
20260503212015 55 319 2.6 13.0 0.00 0.27 0.05 42 1006.7
20260503211515 55 255 0.9 6.1 0.00 0.27 0.05 42 1006.5
20260503210011 55 337 1.7 7.8 0.00 0.27 0.05 45 1006.4
20260503205011 55 309 1.7 5.2 0.00 0.27 0.05 44 1006.4
20260503204012 55 280 1.7 8.7 0.00 0.27 0.05 46 1006.3
20260503203013 55 283 1.7 7.0 0.00 0.27 0.05 46 1006.1
20260503202010 54 295 2.6 7.0 0.00 0.27 0.05 47 1006.1
20260503201013 54 354 1.7 7.8 0.00 0.27 0.05 49 1006.1
20260503200012 54 236 0.9 5.2 0.00 0.27 0.05 50 1006.1
20260503195011 55 274 1.7 4.3 0.00 0.27 0.05 46 1005.9
20260503194010 56 316 1.7 9.6 0.00 0.27 0.05 48 1005.8
20260503193014 55 341 0.9 6.1 0.00 0.27 0.05 52 1005.9
20260503192013 53 294 1.7 7.0 0.00 0.27 0.05 53 1006.0
20260503191012 53 294 1.7 7.8 0.00 0.27 0.05 53 1006.1
20260503190513 53 308 0.9 3.5 0.00 0.27 0.05 53 1006.1
20260503185011 53 276 0.9 6.1 0.00 0.27 0.05 54 1006.1
20260503184017 52 307 0.9 5.2 0.00 0.27 0.05 56 1006.3
20260503184011 53 251 0.9 5.2 0.00 0.27 0.05 55 1006.2
20260503182010 52 43 1.7 7.0 0.00 0.27 0.05 55 1006.2
20260503181007 52 308 1.7 7.0 0.00 0.27 0.05 57 1006.2
20260503180514 52 11 2.6 11.3 0.00 0.27 0.05 58 1006.3
20260503175008 52 270 2.6 9.6 0.00 0.27 0.05 61 1006.2
20260503174007 51 328 2.6 10.4 0.00 0.27 0.05 61 1006.1
20260503173005 51 311 1.7 7.8 0.00 0.27 0.05 63 1006.2
20260503172005 52 290 2.6 8.7 0.00 0.27 0.05 62 1006.1
20260503171507 51 30 3.5 13.0 0.00 0.27 0.05 65 1005.9
20260503150953 49 298 1.7 7.0 0.00 0.27 0.05 76 1005.6
20260503130947 50 347 1.7 7.0 0.00 0.27 0.05 73 1005.3
20260503080929 45 292 0.0 0.9 0.01 0.27 0.05 73 1007.3
20260503071928 46 308 0.0 0.9 0.00 0.26 0.04 69 1007.8
20260503070927 46 307 0.0 0.9 0.00 0.26 0.04 68 1007.8
20260503054925 48 263 0.0 0.9 0.03 0.26 0.04 65 1008.8
20260503053925 48 276 0.0 0.9 0.01 0.24 0.02 65 1008.8
20260503052926 48 278 0.0 0.9 0.00 0.23 0.01 65 1008.9
20260503051926 48 277 0.0 0.0 0.00 0.23 0.01 65 1009.0
20260503051425 48 277 0.0 0.0 0.00 0.23 0.01 65 1009.3
20260503045924 48 278 0.0 0.0 0.01 0.23 0.01 65 1009.4
20260503044919 48 277 0.0 0.0 0.01 0.23 0.01 65 1009.6
20260503043919 48 277 0.0 0.9 0.02 0.23 0.01 66 1009.6
20260503042919 48 277 0.0 0.9 0.02 0.23 0.01 66 1009.8
20260503041920 48 277 0.0 0.9 0.03 0.23 0.01 66 1009.9
20260503040919 48 305 0.0 0.9 0.03 0.23 0.01 66 1010.1
20260503035919 48 229 0.0 0.9 0.02 0.22 0.22 66 1010.1
20260503034917 48 200 0.0 0.0 0.03 0.22 0.22 66 1010.0
20260503033919 48 200 0.0 0.0 0.02 0.21 0.21 66 1010.0
20260503032917 48 198 0.0 0.0 0.02 0.21 0.21 66 1010.0
20260503031912 48 198 0.0 0.0 0.02 0.20 0.20 66 1010.1
20260503031415 48 198 0.0 0.0 0.02 0.20 0.20 66 1010.1
20260503025911 48 198 0.0 0.0 0.03 0.20 0.20 67 1010.2
20260503024912 48 198 0.0 0.0 0.03 0.19 0.19 67 1010.4
20260503023913 48 198 0.0 0.0 0.05 0.19 0.19 67 1010.5
20260503022911 48 198 0.0 0.0 0.06 0.19 0.19 67 1010.6
20260503021914 49 198 0.0 0.0 0.05 0.18 0.18 67 1010.6
20260503021415 49 203 0.0 0.9 0.06 0.18 0.18 67 1010.9
20260503015911 49 204 0.0 0.0 0.05 0.17 0.17 67 1010.8
20260503014905 49 204 0.0 0.0 0.05 0.16 0.16 68 1010.9
20260503013905 49 204 0.0 0.9 0.05 0.14 0.14 68 1011.1
20260503012903 49 204 0.0 0.0 0.06 0.13 0.13 68 1010.9
20260503011903 49 204 0.0 0.9 0.07 0.13 0.13 68 1011.2
20260503010903 49 215 0.0 0.0 0.08 0.12 0.12 68 1011.1
20260503005905 49 216 0.0 0.0 0.09 0.12 0.12 68 1011.1
20260503004903 49 215 0.0 0.0 0.08 0.11 0.11 69 1011.2
20260503003904 49 215 0.0 0.9 0.07 0.09 0.09 69 1011.1
20260503003404 49 198 0.0 0.0 0.05 0.07 0.07 70 1011.0
20260503001858 49 198 0.0 0.0 0.05 0.06 0.06 70 1011.1
20260503000857 49 200 0.0 0.0 0.04 0.04 0.05 71 1010.9
20260503000400 49 198 0.0 0.0 0.03 0.03 0.03 71 1011.1
20260502234859 49 198 0.0 0.0 0.03 0.03 0.03 72 1011.3
20260502233900 50 192 0.0 0.0 0.02 0.02 0.02 74 1011.1
20260502232857 50 191 0.0 0.0 0.02 0.02 0.02 75 1010.9
20260502231857 50 191 0.0 0.9 0.01 0.01 0.01 77 1010.9
20260502230857 51 191 0.0 0.9 0.00 0.00 0.00 78 1011.0
20260502225857 51 163 0.0 0.9 0.00 0.00 0.00 79 1010.9
20260502224853 52 205 0.0 0.9 0.00 0.00 0.00 80 1010.9
20260502223851 52 200 0.0 1.7 0.00 0.00 0.00 81 1010.8
20260502222855 52 203 0.0 0.9 0.00 0.00 0.00 81 1010.7
20260502222352 52 148 0.0 2.6 0.00 0.00 0.00 81 1010.6
20260502220853 53 195 0.0 1.7 0.00 0.00 0.00 81 1010.7
20260502215851 53 205 0.0 1.7 0.00 0.00 0.00 81 1010.6
20260502214854 53 225 0.0 1.7 0.00 0.00 0.00 81 1010.8